Home > Weather > Clovis > Past weeks

Flag for USA Past Weather in Clovis, New Mexico, USA — Yesterday and Last 2 Weeks

Now
67 °F

Clear.


Feels Like: 67 °F
Forecast: 60 / 79 °F
Wind: 6 mph from Southwest

Location: Cannon Air Force Base / Clovis

Current Time: Aug 24, 2016 at 10:43:46 PM

Latest Report: Aug 24, 2016 at 9:58 PM


Visibility: 10 mi

Pressure: 29.99 "Hg (25.76 "Hg at 1300m altitude)

Humidity: 63%

Dew Point: 54 °F

Location of ClovisLocation

Past Weather in Clovis — Graph

°F

Clovis Temperature Yesterday

Maximum temperature yesterday: 92 °F (at 1:58 PM)
Minimum temperature yesterday: 63 °F (at 6:58 AM)
Average temperature yesterday: 76 °F

High & Low Weather Summary for the Past Weeks

 TemperatureHumidityPressure
High93 °F (Aug 10, 2:58 PM)100% (Aug 10, 3:58 AM)30.23 "Hg (Aug 10, 3:58 AM)
Low58 °F (Aug 18, 4:58 AM)14% (Aug 17, 3:58 PM)29.70 "Hg (Aug 19, 4:58 PM)
Average74 °F59%29.96 "Hg
* Reported Aug 9 8:58 PM — Aug 24 8:58 PM, Clovis, Weather by CustomWeather, © 2016

Note: Actual official high and low records may vary slightly from our data, if they occured in-between our weather recording intervals... More about our weather records

Advertising

Clovis Weather History for the Previous 24 Hours

Scroll right to see more
 ConditionsComfort  
Time TempWeatherWind HumidityBarometerVisibility
8:58 PM
Wed, Aug 24
70 °FPassing clouds.7 mph58%29.97 "Hg10 mi
7:58 PM73 °FSunny.8 mph51%29.93 "Hg10 mi
6:58 PM79 °FSunny.12 mph39%29.89 "Hg10 mi
5:58 PM82 °FSunny.18 mph32%29.90 "Hg10 mi
4:58 PM82 °FPassing clouds.22 mph39%29.91 "Hg10 mi
4:03 PM86 °FScattered clouds.18 mph31%30.08 "Hg10 mi
3:58 PM86 °FScattered clouds.16 mph31%29.90 "Hg10 mi
2:58 PM85 °FScattered clouds.13 mph31%29.92 "Hg10 mi
1:58 PM83 °FPassing clouds.16 mph38%29.94 "Hg10 mi
12:58 PM82 °FPassing clouds.17 mph41%29.95 "Hg10 mi
11:58 AM79 °FSunny.14 mph43%29.98 "Hg10 mi
10:58 AM76 °FPassing clouds.17 mph48%29.98 "Hg10 mi
9:58 AM73 °FSunny.20 mph55%29.99 "Hg10 mi
8:58 AM66 °FSunny.14 mph75%30.01 "Hg10 mi
7:58 AM66 °FScattered clouds.14 mph75%30.01 "Hg10 mi
6:58 AM65 °FPassing clouds.15 mph74%29.99 "Hg10 mi
5:58 AM67 °FOvercast.13 mph65%29.97 "Hg10 mi
4:58 AM66 °FPassing clouds.6 mph67%29.94 "Hg10 mi
3:58 AM65 °FPassing clouds.6 mph74%29.94 "Hg10 mi
2:58 AM67 °FClear.9 mph66%29.95 "Hg10 mi
1:58 AM69 °FClear.8 mph68%29.94 "Hg10 mi
12:58 AM71 °FPassing clouds.13 mph63%29.95 "Hg10 mi
11:58 PM
Tue, Aug 23
72 °FPassing clouds.14 mph59%29.93 "Hg10 mi
10:58 PM74 °FPassing clouds.21 mph57%29.93 "Hg10 mi
Weather by CustomWeather, © 2016

See weather overviewHow to use our weather pages